Location: Goettingen
(51.5300°N, 9.9433°E)
Time: 18:13:55
(UTC+02:00)

ISS - Pass Details

Date: 07 May 2026
Orbit: 414 x 424 km, 51.6° (Epoch: 13 May)

Event Time Altitude Azimuth Distance (km) Brightness Sun altitude
Rises 04:53:00 0° 282° (WNW) 2,363 -0.3 -7.1°
Reaches altitude 10° 04:55:28 10° 264° (W) 1,498 -1.5 -6.8°
Maximum altitude 04:57:58 20° 216° (SW) 1,047 -2.3 -6.5°
Drops below altitude 10° 05:00:28 10° 168° (SSE) 1,496 -1.2 -6.2°
Sets 05:02:56 0° 150° (SSE) 2,359 0.0 -5.9°
